TIANWANG 1B (TW-1B)
1 40927U 15051C   19130.38361292  .00010074  00000-0  16081-3 0  9993
2 40927  97.1416 176.0634 0009535 156.7312 267.9157 15.53341216203919
TIANWANG 1A (TW-1A)
1 40928U 15051D   19130.46135350  .00002838  00000-0  71815-4 0  9993
2 40928  97.1489 162.6322 0010021 208.4404 257.3479 15.40530024203131
LAPAN A2
1 40931U 15052B   19128.08007138  .00000748  00000-0  15064-4 0  9997
2 40931   5.9995 353.3253 0013648 287.6416  72.2667 14.76605893195101
LQSAT
1 40958U 15057A   19130.37047741  .00000004  00000-0  82547-5 0  9996
2 40958  97.9008 200.6230 0018349  12.2226 347.9423 14.73076318193010
CHUBUSAT 2
1 41338U 16012B   19130.10149536  .00000323  00000-0  18437-4 0  9997
2 41338  31.0040  36.3659 0013642  71.1827 289.0287 15.00135660176965
CHUBUSAT 3
1 41339U 16012C   19130.14216177  .00000329  00000-0  18852-4 0  9995
2 41339  31.0104  34.2531 0013348  78.6412 281.5722 15.00312555176969
OUFTI-1
1 41458U 16025C   19129.71731458  .00003154  00000-0  16280-3 0  9997
2 41458  98.1008 214.5346 0168034 131.2856 230.2979 15.05676588166560
E-STAR-2
1 41459U 16025D   19130.18966032  .00002151  00000-0  11336-3 0  9992
2 41459  98.0990 214.7145 0168745 130.8604 230.7445 15.05323858166601
AAUSAT 4
1 41460U 16025E   19130.28047008  .00002595  00000-0  13286-3 0  9996
2 41460  98.0955 215.9567 0159740 123.6333 238.0235 15.07161726166737
NUSAT 1
1 41557U 16033B   19130.53379701  .00001219  00000-0  48489-4 0  9994
2 41557  97.4173 218.2650 0015550  78.4072 281.8911 15.27109284164115
BEESAT 4
1 41619U 16040W   19130.22704574  .00001322  00000-0  59081-4 0  9992
2 41619  97.3706 193.1809 0012118 154.8066 205.3765 15.23009510147858
PRATHAM
1 41783U 16059A   19129.65740788  .00000048  00000-0  18571-4 0  9999
2 41783  98.0709 190.1157 0034406 148.0715 212.2581 14.62988470139693
ALSAT 1N
1 41789U 16059G   19130.43188689  .00000099  00000-0  27638-4 0  9999
2 41789  98.0725 192.7806 0029259 135.3688 224.9880 14.64236015139903
NAYIF 1
1 42017U 17008BX  19129.22484579 +.00001266 +00000-0 +52976-4 0  9991
2 42017 097.4057 196.7318 0005018 324.9856 035.1051 15.25401168123750
MAX VALIER SAT
1 42778U 17036P   19130.40966159  .00000901  00000-0  42485-4 0  9996
2 42778  97.3578 188.9346 0012525  11.0186 349.1322 15.21935102104266
